Time,TemperatureF,DewpointF,PressureIn,WindDirection,WindDirectionDegrees,WindSpeedMPH,WindSpeedGustMPH,Humidity,HourlyPrecipIn,Conditions,Clouds,dailyrainin,SolarRadiationWatts/m^2,SoftwareType,DateUTC
2013-05-18 00:02:00,75.0,11.0,30.04,WNW,293,13.0,19.0,8,-99.99,,,-99.99,0.000000,,2013-05-18 06:02:00,
2013-05-18 00:11:00,75.0,9.0,30.04,WNW,288,15.0,22.0,7,-99.99,,,-99.99,0.000000,,2013-05-18 06:11:00,
2013-05-18 00:22:00,75.0,9.0,30.04,WNW,288,15.0,22.0,7,-99.99,,,-99.99,0.000000,,2013-05-18 06:22:00,
2013-05-18 00:32:00,75.0,8.0,30.04,WNW,287,15.0,21.0,7,-99.99,,,-99.99,0.000000,,2013-05-18 06:32:00,
2013-05-18 00:42:00,75.0,8.0,30.03,WNW,283,15.0,23.0,7,-99.99,,,-99.99,0.000000,,2013-05-18 06:42:00,
2013-05-18 00:52:00,75.0,8.0,30.03,WNW,283,15.0,23.0,7,-99.99,,,-99.99,0.000000,,2013-05-18 06:52:00,
2013-05-18 01:01:00,75.0,8.0,30.03,WNW,282,16.0,24.0,7,-99.99,,,-99.99,0.000000,,2013-05-18 07:01:00,
2013-05-18 01:11:00,75.0,8.0,30.03,West,281,17.0,28.0,7,-99.99,,,-99.99,0.000000,,2013-05-18 07:11:00,
2013-05-18 01:21:00,75.0,8.0,30.03,West,281,17.0,28.0,7,-99.99,,,-99.99,0.000000,,2013-05-18 07:21:00,
2013-05-18 01:31:00,74.0,9.0,30.02,WNW,285,18.0,26.0,7,-99.99,,,-99.99,0.000000,,2013-05-18 07:31:00,
2013-05-18 01:42:00,74.0,9.0,30.02,WNW,287,19.0,28.0,8,-99.99,,,-99.99,0.000000,,2013-05-18 07:42:00,
2013-05-18 01:52:00,74.0,9.0,30.02,WNW,287,19.0,28.0,8,-99.99,,,-99.99,0.000000,,2013-05-18 07:52:00,
2013-05-18 02:01:00,73.0,10.0,30.01,WNW,293,20.0,29.0,8,-99.99,,,-99.99,0.000000,,2013-05-18 08:01:00,
2013-05-18 02:11:00,73.0,10.0,30.01,WNW,294,20.0,27.0,8,-99.99,,,-99.99,0.000000,,2013-05-18 08:11:00,
2013-05-18 02:21:00,73.0,10.0,30.01,WNW,294,20.0,27.0,8,-99.99,,,-99.99,0.000000,,2013-05-18 08:21:00,
2013-05-18 02:32:00,73.0,10.0,30.01,WNW,295,19.0,25.0,8,-99.99,,,-99.99,0.000000,,2013-05-18 08:32:00,
2013-05-18 02:42:00,73.0,10.0,30.01,WNW,296,20.0,28.0,8,-99.99,,,-99.99,0.000000,,2013-05-18 08:42:00,
2013-05-18 02:52:00,73.0,10.0,30.01,WNW,296,20.0,28.0,8,-99.99,,,-99.99,0.000000,,2013-05-18 08:52:00,
2013-05-18 03:02:00,73.0,11.0,30.01,WNW,297,20.0,29.0,8,-99.99,,,-99.99,0.000000,,2013-05-18 09:02:00,
2013-05-18 03:11:00,74.0,11.0,30.00,WNW,298,22.0,33.0,8,-99.99,,,-99.99,0.000000,,2013-05-18 09:11:00,
2013-05-18 03:22:00,74.0,11.0,30.00,WNW,298,22.0,33.0,8,-99.99,,,-99.99,0.000000,,2013-05-18 09:22:00,
2013-05-18 03:32:00,73.0,11.0,30.00,WNW,297,22.0,36.0,9,-99.99,,,-99.99,0.000000,,2013-05-18 09:32:00,
2013-05-18 03:43:00,73.0,11.0,30.00,WNW,301,24.0,35.0,9,-99.99,,,-99.99,0.000000,,2013-05-18 09:43:00,
2013-05-18 03:53:00,73.0,11.0,30.00,WNW,301,24.0,35.0,9,-99.99,,,-99.99,0.000000,,2013-05-18 09:53:00,
2013-05-18 04:03:00,73.0,12.0,30.00,WNW,301,23.0,36.0,9,-99.99,,,-99.99,0.000000,,2013-05-18 10:03:00,
2013-05-18 04:12:00,73.0,12.0,30.00,WNW,303,23.0,35.0,9,-99.99,,,-99.99,0.000000,,2013-05-18 10:12:00,
2013-05-18 04:23:00,73.0,12.0,30.00,WNW,303,23.0,35.0,9,-99.99,,,-99.99,0.000000,,2013-05-18 10:23:00,
2013-05-18 04:33:00,73.0,13.0,30.00,WNW,301,25.0,36.0,9,-99.99,,,-99.99,0.000000,,2013-05-18 10:33:00,
2013-05-18 04:42:00,73.0,14.0,30.01,WNW,303,25.0,37.0,10,-99.99,,,-99.99,0.000000,,2013-05-18 10:42:00,
2013-05-18 04:53:00,73.0,14.0,30.01,WNW,303,25.0,37.0,10,-99.99,,,-99.99,0.000000,,2013-05-18 10:53:00,
2013-05-18 05:03:00,73.0,14.0,30.00,NW,304,24.0,38.0,10,-99.99,,,-99.99,0.000000,,2013-05-18 11:03:00,
2013-05-18 05:12:00,72.0,14.0,30.00,WNW,303,24.0,36.0,10,-99.99,,,-99.99,0.000000,,2013-05-18 11:12:00,
2013-05-18 05:22:00,72.0,14.0,30.00,WNW,303,24.0,36.0,10,-99.99,,,-99.99,0.000000,,2013-05-18 11:22:00,
2013-05-18 05:33:00,72.0,14.0,30.01,NW,307,22.0,35.0,10,-99.99,,,-99.99,0.000000,,2013-05-18 11:33:00,
2013-05-18 05:42:00,72.0,14.0,30.01,NW,309,22.0,34.0,10,-99.99,,,-99.99,0.000000,,2013-05-18 11:42:00,
2013-05-18 05:52:00,72.0,14.0,30.01,NW,309,22.0,34.0,10,-99.99,,,-99.99,0.000000,,2013-05-18 11:52:00,
2013-05-18 06:01:00,72.0,14.0,30.01,NW,306,22.0,35.0,10,-99.99,,,-99.99,0.000000,,2013-05-18 12:01:00,
2013-05-18 06:12:00,72.0,14.0,30.01,NW,304,23.0,34.0,10,-99.99,,,-99.99,0.000000,,2013-05-18 12:12:00,
2013-05-18 06:23:00,72.0,14.0,30.01,NW,304,23.0,34.0,10,-99.99,,,-99.99,0.000000,,2013-05-18 12:23:00,
2013-05-18 06:33:00,72.0,14.0,30.02,WNW,303,22.0,31.0,11,-99.99,,,-99.99,0.700000,,2013-05-18 12:33:00,
2013-05-18 06:42:00,71.0,14.0,30.03,NW,304,21.0,31.0,11,-99.99,,,-99.99,4.880000,,2013-05-18 12:42:00,
2013-05-18 06:52:00,71.0,14.0,30.03,NW,304,21.0,31.0,11,-99.99,,,-99.99,4.880000,,2013-05-18 12:52:00,
2013-05-18 07:01:00,71.0,14.0,30.04,WNW,302,20.0,31.0,11,-99.99,,,-99.99,9.760000,,2013-05-18 13:01:00,
2013-05-18 07:11:00,71.0,14.0,30.06,NW,304,20.0,30.0,11,-99.99,,,-99.99,16.040001,,2013-05-18 13:11:00,
2013-05-18 07:21:00,71.0,14.0,30.06,NW,304,20.0,30.0,11,-99.99,,,-99.99,16.040001,,2013-05-18 13:21:00,
2013-05-18 07:33:00,71.0,15.0,30.06,WNW,302,20.0,30.0,11,-99.99,,,-99.99,25.799999,,2013-05-18 13:33:00,
2013-05-18 07:43:00,70.0,15.0,30.07,WNW,302,18.0,26.0,11,-99.99,,,-99.99,57.180000,,2013-05-18 13:43:00,
2013-05-18 07:53:00,70.0,15.0,30.07,WNW,302,18.0,26.0,11,-99.99,,,-99.99,57.180000,,2013-05-18 13:53:00,
2013-05-18 08:03:00,71.0,17.0,30.07,NW,307,17.0,25.0,12,-99.99,,,-99.99,95.529999,,2013-05-18 14:03:00,
2013-05-18 08:12:00,72.0,16.0,30.08,NW,304,15.0,23.0,11,-99.99,,,-99.99,166.660004,,2013-05-18 14:12:00,
2013-05-18 08:22:00,72.0,16.0,30.08,NW,304,15.0,23.0,11,-99.99,,,-99.99,166.660004,,2013-05-18 14:22:00,
2013-05-18 08:32:00,72.0,16.0,30.08,WNW,299,15.0,22.0,11,-99.99,,,-99.99,202.919998,,2013-05-18 14:32:00,
2013-05-18 08:42:00,72.0,17.0,30.09,WNW,301,15.0,23.0,11,-99.99,,,-99.99,359.130005,,2013-05-18 14:42:00,
2013-05-18 08:54:00,72.0,17.0,30.09,WNW,301,15.0,23.0,11,-99.99,,,-99.99,359.130005,,2013-05-18 14:54:00,
2013-05-18 09:03:00,73.0,17.0,30.09,NW,304,15.0,24.0,12,-99.99,,,-99.99,359.820007,,2013-05-18 15:03:00,
2013-05-18 09:13:00,73.0,18.0,30.09,WNW,302,15.0,25.0,12,-99.99,,,-99.99,459.540009,,2013-05-18 15:13:00,
2013-05-18 09:23:00,73.0,18.0,30.09,WNW,302,15.0,25.0,12,-99.99,,,-99.99,459.540009,,2013-05-18 15:23:00,
2013-05-18 09:33:00,74.0,19.0,30.09,WNW,291,17.0,26.0,12,-99.99,,,-99.99,569.719971,,2013-05-18 15:33:00,
2013-05-18 09:43:00,74.0,19.0,30.10,WNW,298,17.0,27.0,12,-99.99,,,-99.99,539.739990,,2013-05-18 15:43:00,
2013-05-18 09:53:00,74.0,19.0,30.10,WNW,298,17.0,27.0,12,-99.99,,,-99.99,539.739990,,2013-05-18 15:53:00,
2013-05-18 10:02:00,74.0,19.0,30.10,WNW,284,17.0,27.0,12,-99.99,,,-99.99,592.729980,,2013-05-18 16:02:00,
2013-05-18 10:13:00,74.0,20.0,30.10,West,277,15.0,25.0,12,-99.99,,,-99.99,511.149994,,2013-05-18 16:13:00,
2013-05-18 10:22:00,74.0,20.0,30.10,West,277,15.0,25.0,12,-99.99,,,-99.99,511.149994,,2013-05-18 16:22:00,
2013-05-18 10:33:00,74.0,20.0,30.09,West,276,15.0,31.0,13,-99.99,,,-99.99,652.700012,,2013-05-18 16:33:00,
2013-05-18 10:42:00,75.0,20.0,30.09,WNW,290,15.0,26.0,12,-99.99,,,-99.99,744.049988,,2013-05-18 16:42:00,
2013-05-18 10:52:00,75.0,20.0,30.09,WNW,290,15.0,26.0,12,-99.99,,,-99.99,744.049988,,2013-05-18 16:52:00,
2013-05-18 11:02:00,76.0,20.0,30.09,WNW,292,15.0,30.0,12,-99.99,,,-99.99,744.049988,,2013-05-18 17:02:00,
2013-05-18 11:12:00,76.0,20.0,30.09,WNW,284,15.0,22.0,12,-99.99,,,-99.99,804.719971,,2013-05-18 17:12:00,
2013-05-18 11:22:00,76.0,20.0,30.09,WNW,284,15.0,22.0,12,-99.99,,,-99.99,804.719971,,2013-05-18 17:22:00,
2013-05-18 11:32:00,76.0,21.0,30.09,WNW,289,12.0,22.0,12,-99.99,,,-99.99,839.590027,,2013-05-18 17:32:00,
2013-05-18 11:42:00,76.0,22.0,30.08,WNW,285,13.0,26.0,12,-99.99,,,-99.99,868.179993,,2013-05-18 17:42:00,
2013-05-18 11:52:00,76.0,22.0,30.08,WNW,285,13.0,26.0,12,-99.99,,,-99.99,868.179993,,2013-05-18 17:52:00,
2013-05-18 12:01:00,77.0,21.0,30.08,West,266,13.0,30.0,12,-99.99,,,-99.99,888.400024,,2013-05-18 18:01:00,
2013-05-18 12:12:00,77.0,21.0,30.07,West,268,13.0,23.0,12,-99.99,,,-99.99,913.510010,,2013-05-18 18:12:00,
2013-05-18 12:21:00,77.0,21.0,30.07,West,268,13.0,23.0,12,-99.99,,,-99.99,913.510010,,2013-05-18 18:21:00,
2013-05-18 12:32:00,77.0,21.0,30.07,West,261,15.0,28.0,12,-99.99,,,-99.99,933.729980,,2013-05-18 18:32:00,
2013-05-18 12:42:00,77.0,20.0,30.07,WNW,287,13.0,22.0,11,-99.99,,,-99.99,949.770020,,2013-05-18 18:42:00,
2013-05-18 12:52:00,77.0,20.0,30.07,WNW,287,13.0,22.0,11,-99.99,,,-99.99,949.770020,,2013-05-18 18:52:00,
2013-05-18 13:02:00,78.0,20.0,30.07,West,273,14.0,29.0,11,-99.99,,,-99.99,969.989990,,2013-05-18 19:02:00,
2013-05-18 13:12:00,78.0,20.0,30.06,West,271,11.0,27.0,11,-99.99,,,-99.99,909.320007,,2013-05-18 19:12:00,
2013-05-18 13:22:00,78.0,20.0,30.06,West,271,11.0,27.0,11,-99.99,,,-99.99,909.320007,,2013-05-18 19:22:00,
2013-05-18 13:32:00,78.0,19.0,30.06,West,260,13.0,25.0,10,-99.99,,,-99.99,986.030029,,2013-05-18 19:32:00,
2013-05-18 13:42:00,78.0,18.0,30.05,West,259,14.0,31.0,10,-99.99,,,-99.99,997.190002,,2013-05-18 19:42:00,
2013-05-18 13:52:00,78.0,18.0,30.05,West,259,14.0,31.0,10,-99.99,,,-99.99,997.190002,,2013-05-18 19:52:00,
2013-05-18 14:02:00,78.0,18.0,30.05,West,259,14.0,31.0,10,-99.99,,,-99.99,997.190002,,2013-05-18 20:02:00,
2013-05-18 14:11:00,78.0,18.0,30.04,SW,222,11.0,26.0,10,-99.99,,,-99.99,978.359985,,2013-05-18 20:11:00,
2013-05-18 14:22:00,78.0,18.0,30.04,SW,222,11.0,26.0,10,-99.99,,,-99.99,978.359985,,2013-05-18 20:22:00,
2013-05-18 14:32:00,79.0,17.0,30.03,West,265,15.0,30.0,9,-99.99,,,-99.99,972.080017,,2013-05-18 20:32:00,
2013-05-18 14:42:00,79.0,16.0,30.02,West,278,16.0,29.0,9,-99.99,,,-99.99,958.140015,,2013-05-18 20:42:00,
2013-05-18 14:52:00,79.0,16.0,30.02,West,278,16.0,29.0,9,-99.99,,,-99.99,958.140015,,2013-05-18 20:52:00,
2013-05-18 15:01:00,80.0,14.0,30.02,West,262,14.0,29.0,8,-99.99,,,-99.99,944.190002,,2013-05-18 21:01:00,
2013-05-18 15:12:00,80.0,16.0,30.01,West,271,17.0,29.0,8,-99.99,,,-99.99,919.090027,,2013-05-18 21:12:00,
2013-05-18 15:21:00,80.0,16.0,30.01,West,271,17.0,29.0,8,-99.99,,,-99.99,919.090027,,2013-05-18 21:21:00,
2013-05-18 15:32:00,80.0,16.0,30.01,West,272,14.0,29.0,8,-99.99,,,-99.99,895.380005,,2013-05-18 21:32:00,
2013-05-18 15:43:00,80.0,15.0,30.00,WSW,252,11.0,26.0,8,-99.99,,,-99.99,866.789978,,2013-05-18 21:43:00,
2013-05-18 15:53:00,80.0,15.0,30.00,WSW,252,11.0,26.0,8,-99.99,,,-99.99,866.789978,,2013-05-18 21:53:00,
2013-05-18 16:03:00,81.0,12.0,30.00,West,280,19.0,32.0,7,-99.99,,,-99.99,840.289978,,2013-05-18 22:03:00,
2013-05-18 16:12:00,81.0,11.0,29.99,WNW,286,16.0,30.0,6,-99.99,,,-99.99,803.330017,,2013-05-18 22:12:00,
2013-05-18 16:23:00,81.0,11.0,29.99,WNW,286,16.0,30.0,6,-99.99,,,-99.99,803.330017,,2013-05-18 22:23:00,
2013-05-18 16:33:00,81.0,12.0,29.98,WNW,293,16.0,32.0,7,-99.99,,,-99.99,760.789978,,2013-05-18 22:33:00,
2013-05-18 16:42:00,82.0,14.0,29.98,West,269,17.0,35.0,7,-99.99,,,-99.99,716.159973,,2013-05-18 22:42:00,
2013-05-18 16:53:00,82.0,14.0,29.98,West,269,17.0,35.0,7,-99.99,,,-99.99,716.159973,,2013-05-18 22:53:00,
2013-05-18 17:01:00,81.0,13.0,29.97,West,273,17.0,36.0,7,-99.99,,,-99.99,675.719971,,2013-05-18 23:01:00,
2013-05-18 17:12:00,82.0,10.0,29.96,West,269,18.0,35.0,6,-99.99,,,-99.99,627.599976,,2013-05-18 23:12:00,
2013-05-18 17:22:00,82.0,10.0,29.96,West,269,18.0,35.0,6,-99.99,,,-99.99,627.599976,,2013-05-18 23:22:00,
2013-05-18 17:32:00,81.0,8.0,29.96,West,267,20.0,35.0,6,-99.99,,,-99.99,583.669983,,2013-05-18 23:32:00,
2013-05-18 17:41:00,82.0,8.0,29.95,West,273,17.0,30.0,5,-99.99,,,-99.99,532.760010,,2013-05-18 23:41:00,
2013-05-18 17:53:00,82.0,8.0,29.95,West,273,17.0,30.0,5,-99.99,,,-99.99,532.760010,,2013-05-18 23:53:00,
2013-05-18 18:01:00,81.0,5.0,29.95,West,275,20.0,34.0,5,-99.99,,,-99.99,481.859985,,2013-05-19 00:01:00,
2013-05-18 18:11:00,81.0,6.0,29.94,West,272,19.0,42.0,5,-99.99,,,-99.99,433.040009,,2013-05-19 00:11:00,
2013-05-18 18:21:00,81.0,6.0,29.94,West,272,19.0,42.0,5,-99.99,,,-99.99,433.040009,,2013-05-19 00:21:00,
2013-05-18 18:32:00,81.0,7.0,29.94,West,274,20.0,36.0,5,-99.99,,,-99.99,380.739990,,2013-05-19 00:32:00,
2013-05-18 18:41:00,81.0,7.0,29.94,West,274,19.0,35.0,5,-99.99,,,-99.99,329.140015,,2013-05-19 00:41:00,
2013-05-18 18:52:00,81.0,7.0,29.94,West,274,19.0,35.0,5,-99.99,,,-99.99,329.140015,,2013-05-19 00:52:00,
2013-05-18 19:01:00,80.0,9.0,29.94,West,278,19.0,34.0,6,-99.99,,,-99.99,276.140015,,2013-05-19 01:01:00,
2013-05-18 19:11:00,80.0,12.0,29.94,West,271,17.0,33.0,7,-99.99,,,-99.99,225.240005,,2013-05-19 01:11:00,
2013-05-18 19:21:00,80.0,12.0,29.94,West,271,17.0,33.0,7,-99.99,,,-99.99,225.240005,,2013-05-19 01:21:00,
2013-05-18 19:32:00,80.0,14.0,29.94,WNW,282,20.0,36.0,8,-99.99,,,-99.99,175.729996,,2013-05-19 01:32:00,
2013-05-18 19:42:00,79.0,13.0,29.94,West,273,17.0,36.0,7,-99.99,,,-99.99,119.239998,,2013-05-19 01:42:00,
2013-05-18 19:52:00,79.0,13.0,29.94,West,273,17.0,36.0,7,-99.99,,,-99.99,119.239998,,2013-05-19 01:52:00,
2013-05-18 20:01:00,79.0,12.0,29.95,WNW,282,20.0,37.0,7,-99.99,,,-99.99,55.790001,,2013-05-19 02:01:00,
2013-05-18 20:11:00,78.0,12.0,29.95,WNW,287,17.0,32.0,7,-99.99,,,-99.99,20.920000,,2013-05-19 02:11:00,
2013-05-18 20:21:00,78.0,12.0,29.95,WNW,287,17.0,32.0,7,-99.99,,,-99.99,20.920000,,2013-05-19 02:21:00,
2013-05-18 20:32:00,77.0,11.0,29.96,WNW,286,12.0,25.0,7,-99.99,,,-99.99,9.070000,,2013-05-19 02:32:00,
2013-05-18 20:42:00,77.0,11.0,29.96,WNW,298,12.0,22.0,7,-99.99,,,-99.99,2.090000,,2013-05-19 02:42:00,
2013-05-18 20:52:00,77.0,11.0,29.96,WNW,298,12.0,22.0,7,-99.99,,,-99.99,2.090000,,2013-05-19 02:52:00,
2013-05-18 21:01:00,77.0,11.0,29.96,WNW,297,15.0,26.0,7,-99.99,,,-99.99,0.000000,,2013-05-19 03:01:00,
2013-05-18 21:11:00,76.0,11.0,29.96,WNW,298,16.0,30.0,7,-99.99,,,-99.99,0.000000,,2013-05-19 03:11:00,
2013-05-18 21:22:00,76.0,11.0,29.96,WNW,298,16.0,30.0,7,-99.99,,,-99.99,0.000000,,2013-05-19 03:22:00,
2013-05-18 21:33:00,76.0,10.0,29.97,WNW,297,17.0,29.0,7,-99.99,,,-99.99,0.000000,,2013-05-19 03:33:00,
2013-05-18 21:42:00,76.0,10.0,29.97,WNW,299,19.0,31.0,8,-99.99,,,-99.99,0.000000,,2013-05-19 03:42:00,
2013-05-18 21:53:00,76.0,10.0,29.97,WNW,299,19.0,31.0,8,-99.99,,,-99.99,0.000000,,2013-05-19 03:53:00,
2013-05-18 22:02:00,75.0,11.0,29.97,WNW,301,16.0,25.0,8,-99.99,,,-99.99,0.000000,,2013-05-19 04:02:00,
2013-05-18 22:12:00,75.0,11.0,29.98,NW,305,15.0,28.0,8,-99.99,,,-99.99,0.000000,,2013-05-19 04:12:00,
2013-05-18 22:23:00,75.0,11.0,29.98,NW,305,15.0,28.0,8,-99.99,,,-99.99,0.000000,,2013-05-19 04:23:00,
2013-05-18 22:33:00,74.0,11.0,29.98,WNW,300,16.0,28.0,8,-99.99,,,-99.99,0.000000,,2013-05-19 04:33:00,
2013-05-18 22:42:00,74.0,12.0,29.99,WNW,303,16.0,27.0,9,-99.99,,,-99.99,0.000000,,2013-05-19 04:42:00,
2013-05-18 22:53:00,74.0,12.0,29.99,WNW,303,16.0,27.0,9,-99.99,,,-99.99,0.000000,,2013-05-19 04:53:00,
2013-05-18 23:02:00,74.0,12.0,29.99,WNW,303,16.0,27.0,9,-99.99,,,-99.99,0.000000,,2013-05-19 05:02:00,
2013-05-18 23:12:00,73.0,12.0,30.00,WNW,293,18.0,29.0,9,-99.99,,,-99.99,0.000000,,2013-05-19 05:12:00,
2013-05-18 23:22:00,73.0,12.0,30.00,WNW,293,18.0,29.0,9,-99.99,,,-99.99,0.000000,,2013-05-19 05:22:00,
2013-05-18 23:32:00,73.0,13.0,30.00,WNW,294,19.0,29.0,9,-99.99,,,-99.99,0.000000,,2013-05-19 05:32:00,
2013-05-18 23:42:00,72.0,13.0,30.00,WNW,289,17.0,27.0,10,-99.99,,,-99.99,0.000000,,2013-05-19 05:42:00,
2013-05-18 23:52:00,72.0,13.0,30.00,WNW,289,17.0,27.0,10,-99.99,,,-99.99,0.000000,,2013-05-19 05:52:00,